Appleton, MN

8:13 PM CST on November 21, 2019 (GMT -0600)
Appleton Municipal

Weather History for KAQP - August, 2019

Change the Weather History Date:

Friday, August 23, 2019

  Actual Average Record
Temperature  
Mean Temperature 66 °F -  
Max Temperature 78 °F 77 °F 91 °F (2003)
Min Temperature 53 °F 55 °F 46 °F (2004)
Growing Degree Days 16 (Base 50)    
Moisture  
Dew Point 54 °F    
Average Humidity 68    
Maximum Humidity 88    
Minimum Humidity 42    
Precipitation  
Precipitation 0.00 in - - ()
Sea Level Pressure  
Sea Level Pressure 30.14 in    
Wind  
Wind Speed 6 mph (ESE)    
Max Wind Speed 14 mph    
Max Gust Speed 16 mph    
Visibility 10 miles    
Events      
Averages and records for this station are not official NWS values.
T = Trace of Precipitation, MM = Missing Value Source: NWS Daily Summary

Daily Weather History Graph

Daily Weather History Graph

Search for Another Location

Airport or City:

Astronomy

Aug. 23, 2019 Rise Set
Actual Time 6:34 AM CDT 8:17 PM CDT
Civil Twilight 6:03 AM CDT 8:48 PM CDT
Nautical Twilight 5:25 AM CDT 9:26 PM CDT
Astronomical Twilight 4:43 AM CDT 10:07 PM CDT
Moon No Moon Rise 2:34 PM CDT (8/23)
Length of Visible Light 14h 45m
Length of Day
13h 43m
Waning Gibbous, 49% of the Moon is Illuminated
Aug 23
Waning Gibbous
Aug 30
New
Sep 5
First Quarter
Sep 13
Full
Sep 21
Last Quarter

Hourly Weather History & Observations

Time (CDT) Temp. Dew Point Humidity Pressure Visibility Wind Dir Wind Speed Gust Speed Precip Events Conditions
12:31 AM 57.2 °F 51.8 °F 82% 30.12 in 10.0 mi ESE 5.8 mph - N/A   Clear
12:51 AM 55.4 °F 51.8 °F 88% 30.12 in 10.0 mi East 5.8 mph - N/A   Clear
1:11 AM 55.4 °F 51.8 °F 88% 30.12 in 10.0 mi ESE 5.8 mph - N/A   Clear
1:30 AM 55.4 °F 50.0 °F 82% 30.12 in 10.0 mi ESE 4.6 mph - N/A   Clear
1:51 AM 55.4 °F 50.0 °F 82% 30.12 in 10.0 mi East 6.9 mph - N/A   Clear
2:11 AM 55.4 °F 51.8 °F 88% 30.11 in 10.0 mi East 8.1 mph - N/A   Clear
2:31 AM 55.4 °F 50.0 °F 82% 30.11 in 10.0 mi ESE 5.8 mph - N/A   Clear
2:50 AM 55.4 °F 50.0 °F 82% 30.11 in 10.0 mi ESE 6.9 mph - N/A   Clear
3:11 AM 55.4 °F 50.0 °F 82% 30.12 in 10.0 mi ESE 5.8 mph - N/A   Clear
3:31 AM 53.6 °F 48.2 °F 82% 30.13 in 10.0 mi East 5.8 mph - N/A   Clear
3:51 AM 53.6 °F 50.0 °F 88% 30.13 in 10.0 mi East 6.9 mph - N/A   Clear
4:10 AM 53.6 °F 50.0 °F 88% 30.13 in 10.0 mi East 6.9 mph - N/A   Clear
4:31 AM 53.6 °F 50.0 °F 88% 30.13 in 10.0 mi East 5.8 mph - N/A   Clear
4:50 AM 53.6 °F 50.0 °F 88% 30.13 in 10.0 mi East 8.1 mph - N/A   Clear
5:11 AM 53.6 °F 48.2 °F 82% 30.13 in 10.0 mi East 5.8 mph - N/A   Clear
5:31 AM 53.6 °F 48.2 °F 82% 30.13 in 10.0 mi East 6.9 mph - N/A   Clear
5:51 AM 53.6 °F 48.2 °F 82% 30.14 in 10.0 mi East 6.9 mph - N/A   Clear
6:11 AM 53.6 °F 48.2 °F 82% 30.14 in 10.0 mi East 6.9 mph - N/A   Clear
6:31 AM 53.6 °F 50.0 °F 88% 30.16 in 10.0 mi East 4.6 mph - N/A   Clear
6:51 AM 53.6 °F 50.0 °F 88% 30.15 in 10.0 mi ESE 6.9 mph - N/A   Clear
7:11 AM 53.6 °F 50.0 °F 88% 30.15 in 10.0 mi ESE 5.8 mph - N/A   Clear
7:31 AM 55.4 °F 51.8 °F 88% 30.15 in 10.0 mi ESE 5.8 mph - N/A   Clear
7:50 AM 57.2 °F 51.8 °F 82% 30.15 in 10.0 mi ESE 10.4 mph - N/A   Clear
8:11 AM 57.2 °F 51.8 °F 82% 30.16 in 10.0 mi ESE 10.4 mph - N/A   Clear
8:31 AM 60.8 °F 53.6 °F 77% 30.16 in 10.0 mi SE 9.2 mph - N/A   Clear
8:51 AM 60.8 °F 53.6 °F 77% 30.16 in 10.0 mi SE 5.8 mph - N/A   Clear
9:11 AM 62.6 °F 53.6 °F 72% 30.17 in 10.0 mi SE 5.8 mph - N/A   Clear
9:31 AM 62.6 °F 53.6 °F 72% 30.18 in 10.0 mi SSE 5.8 mph - N/A   Clear
9:51 AM 64.4 °F 53.6 °F 68% 30.17 in 10.0 mi SSE 4.6 mph - N/A   Clear
10:11 AM 64.4 °F 55.4 °F 73% 30.18 in 10.0 mi SSE 3.5 mph - N/A   Clear
10:31 AM 66.2 °F 55.4 °F 68% 30.18 in 10.0 mi SE 8.1 mph - N/A   Clear
10:51 AM 68.0 °F 55.4 °F 64% 30.18 in 10.0 mi ESE 10.4 mph - N/A   Scattered Clouds
11:10 AM 69.8 °F 53.6 °F 56% 30.18 in 10.0 mi SE 6.9 mph - N/A   Mostly Cloudy
11:31 AM 69.8 °F 55.4 °F 60% 30.18 in 10.0 mi SE 8.1 mph - N/A   Overcast
11:51 AM 71.6 °F 53.6 °F 53% 30.18 in 10.0 mi ESE 9.2 mph - N/A   Overcast
12:11 PM 71.6 °F 53.6 °F 53% 30.18 in 10.0 mi SE 8.1 mph - N/A   Overcast
12:31 PM 71.6 °F 53.6 °F 53% 30.17 in 10.0 mi SE 10.4 mph - N/A   Mostly Cloudy
12:50 PM 73.4 °F 53.6 °F 50% 30.16 in 10.0 mi ESE 11.5 mph - N/A   Scattered Clouds
1:10 PM 73.4 °F 55.4 °F 53% 30.16 in 10.0 mi SSE 9.2 mph - N/A   Clear
1:30 PM 73.4 °F 55.4 °F 53% 30.16 in 10.0 mi SSE 11.5 mph - N/A   Clear
1:51 PM 75.2 °F 55.4 °F 50% 30.15 in 10.0 mi SE 12.7 mph 16.1 mph N/A   Clear
2:11 PM 75.2 °F 53.6 °F 47% 30.14 in 10.0 mi ESE 13.8 mph - N/A   Clear
2:31 PM 75.2 °F 53.6 °F 47% 30.14 in 10.0 mi ESE 11.5 mph - N/A   Clear
2:50 PM 75.2 °F 53.6 °F 47% 30.14 in 10.0 mi ESE 9.2 mph - N/A   Clear
3:11 PM 75.2 °F 53.6 °F 47% 30.14 in 10.0 mi SE 3.5 mph - N/A   Clear
3:31 PM 77.0 °F 53.6 °F 44% 30.14 in 10.0 mi ESE 8.1 mph 16.1 mph N/A   Clear
3:51 PM 77.0 °F 55.4 °F 47% 30.13 in 10.0 mi SE 10.4 mph - N/A   Clear
4:11 PM 78.8 °F 55.4 °F 44% 30.13 in 10.0 mi Calm Calm - N/A   Clear
4:30 PM 78.8 °F 53.6 °F 42% 30.13 in 10.0 mi Calm Calm - N/A   Clear
4:51 PM 77.0 °F 55.4 °F 47% 30.13 in 10.0 mi Calm Calm - N/A   Clear
5:11 PM 78.8 °F 55.4 °F 44% 30.13 in 10.0 mi Calm Calm - N/A   Clear
5:31 PM 78.8 °F 55.4 °F 44% 30.12 in 10.0 mi ESE 10.4 mph - N/A   Clear
5:51 PM 78.8 °F 55.4 °F 44% 30.13 in 10.0 mi Calm Calm - N/A   Clear
6:11 PM 77.0 °F 55.4 °F 47% 30.13 in 10.0 mi Calm Calm - N/A   Clear
6:30 PM 77.0 °F 55.4 °F 47% 30.13 in 10.0 mi ESE 4.6 mph - N/A   Clear
6:50 PM 75.2 °F 55.4 °F 50% 30.12 in 10.0 mi Calm Calm - N/A   Clear
7:11 PM 73.4 °F 57.2 °F 57% 30.12 in 10.0 mi Calm Calm - N/A   Clear
7:31 PM 73.4 °F 57.2 °F 57% 30.12 in 10.0 mi Calm Calm - N/A   Clear
7:51 PM 71.6 °F 57.2 °F 60% 30.12 in 10.0 mi Calm Calm - N/A   Clear
8:11 PM 69.8 °F 57.2 °F 64% 30.12 in 10.0 mi Calm Calm - N/A   Clear
8:31 PM 68.0 °F 59.0 °F 73% 30.12 in 10.0 mi Calm Calm - N/A   Clear
8:50 PM 66.2 °F 59.0 °F 78% 30.13 in 10.0 mi Calm Calm - N/A   Clear
9:11 PM 66.2 °F 59.0 °F 78% 30.13 in 10.0 mi Calm Calm - N/A   Clear
9:31 PM 66.2 °F 59.0 °F 78% 30.14 in 10.0 mi Calm Calm - N/A   Clear
9:51 PM 66.2 °F 57.2 °F 73% 30.14 in 10.0 mi Calm Calm - N/A   Clear
10:11 PM 66.2 °F 57.2 °F 73% 30.13 in 10.0 mi Calm Calm - N/A   Clear
10:30 PM 66.2 °F 57.2 °F 73% 30.13 in 10.0 mi Calm Calm - N/A   Clear
10:50 PM 66.2 °F 57.2 °F 73% 30.13 in 10.0 mi Calm Calm - N/A   Clear
11:10 PM 64.4 °F 57.2 °F 77% 30.13 in 10.0 mi Calm Calm - N/A   Clear
11:30 PM 64.4 °F 57.2 °F 77% 30.13 in 10.0 mi Calm Calm - N/A   Clear
11:50 PM 64.4 °F 57.2 °F 77% 30.13 in 10.0 mi Calm Calm - N/A   Clear